QPF
0.01 0.02 0.01 0.01 0.00 0.00 0.00 0.00 0.00 0.01 0.00 0.00 0.00 0.00 0.01 0.00 0.00 0.00 0.00 0.00 0.01 0.02 0.00 0.00 0.00 0.00 0.00 0.00 0.00 0.00 0.00 0.00 0.00
0.00 0.00 0.00 0.00 0.00 0.00 0.00 0.00 0.01 0.01 0.01 0.00 0.00 0.01 0.00 0.00 0.00 0.00 0.00 0.00 0.00 0.00 0.00 0.00 0.00 0.00 0.00 0.00 0.00 0.00 0.00 0.00 0.00
0.00 0.00 0.00 0.00 0.00 0.00 0.00 0.00 0.01 0.00 0.00 0.00 0.00 0.00 0.00 0.00 0.00 0.00 0.00 0.00 0.00 0.00 0.00 0.00 0.00 0.00 0.00 0.00 0.00 0.00 0.00 0.00 0.00
0.00 0.00 0.00 0.00 0.00 0.00 0.00 0.00 0.00 0.00 0.00 0.01 0.01 0.00 0.00 0.00 0.00 0.00 0.00 0.00 0.00 0.00 0.00 0.00 0.00 0.00 0.00 0.00 0.00 0.00 0.00 0.00 0.00
0.00 0.00 0.00 0.00 0.00 0.00 0.00 0.00 0.00 0.00 0.00 0.01 0.00 0.00 0.00 0.00 0.00 0.00 0.00 0.00 0.03 0.02 0.01 0.00 0.00 0.00 0.00 0.00 0.00 0.00 0.00 0.00 0.00
0.00 0.00 0.00 0.00 0.00 0.00 0.00 0.00 0.00 0.00 0.00 0.00 0.00 0.00 0.00 0.00 0.00 0.00 0.00 0.01 0.04 0.02 0.01 0.01 0.00 0.00 0.00 0.00 0.00 0.00 0.00 0.00 0.00
0.00 0.00 0.00 0.00 0.00 0.00 0.00 0.00 0.00 0.00 0.00 0.00 0.00 0.01 0.01 0.01 0.00 0.00 0.00 0.02 0.04 0.04 0.03 0.02 0.02 0.01 0.00 0.00 0.00 0.00 0.00 0.00 0.00
0.00 0.00 0.00 0.00 0.00 0.00 0.00 0.00 0.00 0.00 0.00 0.00 0.00 0.00 0.00 0.00 0.01 0.02 0.02 0.03 0.04 0.06 0.07 0.06 0.04 0.03 0.03 0.01 0.01 0.00 0.00 0.00 0.00
0.00 0.00 0.00 0.00 0.00 0.00 0.00 0.00 0.00 0.00 0.00 0.00 0.00 0.00 0.00 0.00 0.00 0.00 0.00 0.01 0.02 0.04 0.05 0.06 0.07 0.07 0.06 0.03 0.01 0.01 0.01 0.00 0.00
0.00 0.00 0.00 0.00 0.00 0.00 0.00 0.00 0.00 0.00 0.00 0.00 0.00 0.00 0.00 0.00 0.00 0.00 0.00 0.00 0.00 0.02 0.02 0.02 0.03 0.05 0.06 0.05 0.04 0.03 0.02 0.01 0.00
0.00 0.00 0.00 0.00 0.00 0.00 0.00 0.00 0.00 0.00 0.00 0.00 0.00 0.00 0.00 0.00 0.00 0.00 0.00 0.00 0.00 0.00 0.01 0.01 0.03 0.05 0.08 0.08 0.07 0.07 0.05 0.03 0.01
0.00 0.00 0.00 0.00 0.00 0.00 0.00 0.00 0.00 0.00 0.00 0.00 0.00 0.00 0.00 0.00 0.00 0.00 0.00 0.00 0.00 0.00 0.00 0.00 0.01 0.02 0.05 0.08 0.09 0.09 0.08 0.06 0.03
0.00 0.00 0.00 0.00 0.00 0.00 0.00 0.00 0.00 0.00 0.00 0.00 0.00 0.00 0.00 0.00 0.00 0.00 0.00 0.00 0.00 0.00 0.00 0.00 0.00 0.01 0.02 0.04 0.07 0.10 0.11 0.10 0.08
0.00 0.00 0.00 0.00 0.00 0.00 0.00 0.00 0.00 0.00 0.00 0.00 0.00 0.00 0.00 0.00 0.00 0.00 0.00 0.00 0.00 0.00 0.00 0.00 0.00 0.00 0.00 0.01 0.03 0.07 0.11 0.13 0.14
0.00 0.00 0.00 0.00 0.00 0.00 0.00 0.00 0.00 0.00 0.00 0.00 0.00 0.00 0.00 0.00 0.00 0.00 0.00 0.00 0.00 0.00 0.00 0.00 0.00 0.00 0.00 0.00 0.00 0.02 0.06 0.09 0.13
0.00 0.00 0.00 0.00 0.00 0.00 0.00 0.00 0.00 0.00 0.00 0.00 0.00 0.00 0.00 0.00 0.00 0.00 0.00 0.00 0.00 0.00 0.00 0.00 0.00 0.00 0.00 0.00 0.01 0.01 0.02 0.05 0.10
0.00 0.00 0.00 0.00 0.00 0.00 0.00 0.00 0.00 0.00 0.00 0.00 0.00 0.00 0.00 0.00 0.00 0.00 0.00 0.00 0.00 0.00 0.00 0.00 0.00 0.00 0.00 0.01 0.01 0.00 0.02 0.05 0.09
0.00 0.00 0.00 0.00 0.00 0.00 0.00 0.00 0.00 0.00 0.00 0.00 0.00 0.00 0.00 0.00 0.00 0.00 0.00 0.00 0.00 0.00 0.00 0.00 0.00 0.00 0.00 0.01 0.01 0.01 0.02 0.02 0.06
0.00 0.00 0.00 0.00 0.00 0.00 0.00 0.00 0.00 0.00 0.00 0.00 0.00 0.00 0.00 0.00 0.00 0.00 0.00 0.00 0.00 0.00 0.00 0.00 0.00 0.00 0.02 0.03 0.03 0.02 0.01 0.04 0.14
0.00 0.00 0.00 0.00 0.00 0.00 0.00 0.00 0.00 0.00 0.00 0.00 0.00 0.00 0.00 0.00 0.00 0.00 0.00 0.00 0.00 0.00 0.00 0.00 0.00 0.00 0.02 0.01 0.01 0.02 0.01 0.11 0.15
MSLP
1017.72 1017.59 1017.49 1017.40 1017.34 1017.29 1017.18 1017.08 1016.99 1016.95 1016.91 1016.82 1016.71 1016.69 1016.80 1016.86 1017.00 1016.99 1016.96 1016.76 1016.33 1016.41 1016.64 1016.84 1016.95 1017.03 1017.09 1017.06 1017.09 1017.04 1016.97 1017.07 1017.10
1017.82 1017.66 1017.50 1017.39 1017.28 1017.16 1017.06 1016.94 1016.81 1016.72 1016.70 1016.61 1016.50 1016.43 1016.51 1016.62 1016.72 1016.72 1016.59 1016.59 1016.38 1016.09 1016.23 1016.51 1016.70 1016.80 1016.92 1017.04 1017.06 1017.04 1017.06 1017.00 1016.96
1017.89 1017.68 1017.51 1017.40 1017.34 1017.27 1017.13 1016.93 1016.76 1016.63 1016.60 1016.51 1016.40 1016.35 1016.36 1016.40 1016.47 1016.43 1016.31 1016.16 1016.09 1015.91 1015.94 1016.14 1016.35 1016.53 1016.64 1016.74 1016.82 1016.91 1016.95 1016.97 1016.96
1017.71 1017.65 1017.58 1017.48 1017.29 1017.13 1017.00 1016.86 1016.72 1016.57 1016.42 1016.24 1016.14 1016.13 1016.12 1016.23 1016.22 1016.13 1016.02 1015.84 1015.66 1015.49 1015.54 1015.73 1015.93 1016.16 1016.39 1016.48 1016.54 1016.61 1016.69 1016.77 1016.84
1017.82 1017.68 1017.52 1017.35 1017.17 1017.05 1016.88 1016.68 1016.52 1016.40 1016.26 1016.10 1015.93 1015.85 1015.84 1015.95 1015.94 1015.89 1015.76 1015.57 1015.27 1015.12 1015.13 1015.30 1015.52 1015.65 1015.83 1016.04 1016.23 1016.32 1016.40 1016.44 1016.52
1018.03 1017.83 1017.59 1017.24 1017.05 1016.97 1016.74 1016.61 1016.36 1016.21 1016.08 1015.95 1015.75 1015.58 1015.57 1015.51 1015.58 1015.54 1015.29 1015.17 1014.99 1014.97 1014.95 1014.99 1015.07 1015.19 1015.34 1015.50 1015.63 1015.76 1015.93 1016.13 1016.23
1018.39 1018.09 1017.79 1017.53 1017.23 1017.07 1016.89 1016.75 1016.44 1016.29 1016.24 1016.02 1015.71 1015.55 1015.35 1015.20 1015.02 1014.97 1014.81 1014.59 1014.48 1014.57 1014.62 1014.70 1014.70 1014.76 1014.87 1014.98 1015.12 1015.19 1015.27 1015.40 1015.63
1018.80 1018.58 1018.32 1018.00 1017.66 1017.54 1017.25 1016.96 1016.72 1016.63 1016.46 1016.18 1015.93 1015.74 1015.53 1015.29 1015.10 1014.70 1014.24 1014.08 1014.03 1014.03 1014.15 1014.25 1014.29 1014.22 1014.28 1014.43 1014.58 1014.72 1014.82 1014.84 1014.97
1019.18 1019.00 1018.73 1018.50 1018.23 1017.98 1017.72 1017.41 1017.03 1016.67 1016.36 1016.14 1015.87 1015.61 1015.49 1015.33 1015.04 1014.69 1014.39 1014.10 1013.75 1013.63 1013.64 1013.71 1013.75 1013.72 1013.69 1013.68 1013.86 1014.08 1014.25 1014.38 1014.51
1019.52 1019.33 1019.02 1018.88 1018.59 1018.42 1018.16 1017.84 1017.47 1017.13 1016.73 1016.32 1016.13 1015.84 1015.51 1015.27 1014.97 1014.75 1014.44 1014.19 1013.91 1013.66 1013.36 1013.05 1013.13 1013.20 1013.22 1013.27 1013.24 1013.27 1013.42 1013.72 1013.87
1019.77 1019.61 1019.41 1019.18 1018.97 1018.75 1018.55 1018.34 1018.00 1017.66 1017.21 1016.76 1016.32 1015.97 1015.51 1015.18 1014.92 1014.58 1014.31 1014.04 1013.93 1013.74 1013.44 1013.09 1012.70 1012.53 1012.62 1012.68 1012.72 1012.84 1012.81 1012.80 1013.03
1020.03 1019.87 1019.70 1019.53 1019.27 1019.03 1018.77 1018.52 1018.28 1017.99 1017.55 1017.17 1016.52 1015.96 1015.55 1015.23 1014.83 1014.45 1014.15 1013.85 1013.60 1013.47 1013.23 1012.95 1012.70 1012.43 1012.18 1012.16 1012.14 1012.13 1012.14 1012.17 1012.14
1020.24 1020.09 1019.88 1019.64 1019.42 1019.22 1019.08 1019.03 1018.82 1018.53 1018.11 1017.53 1016.78 1016.24 1015.79 1015.36 1014.98 1014.57 1014.23 1013.94 1013.83 1013.68 1013.36 1013.00 1012.55 1012.23 1011.95 1011.68 1011.44 1011.33 1011.45 1011.45 1011.39
1020.46 1020.34 1020.11 1019.81 1019.64 1019.45 1019.40 1019.36 1019.21 1018.91 1018.49 1017.82 1017.06 1016.49 1016.04 1015.65 1015.25 1014.89 1014.53 1014.35 1014.35 1014.26 1013.94 1013.46 1012.80 1012.10 1011.55 1011.25 1011.05 1010.81 1010.49 1010.64 1010.64
1020.74 1020.64 1020.44 1020.13 1019.93 1019.80 1019.67 1019.63 1019.49 1019.26 1018.88 1018.02 1017.19 1016.52 1016.16 1016.02 1015.65 1015.34 1015.08 1015.03 1015.00 1014.86 1014.54 1014.09 1013.61 1012.86 1012.08 1011.44 1010.97 1010.57 1010.28 1010.04 1009.87
1021.00 1020.91 1020.66 1020.45 1020.37 1020.21 1020.00 1019.87 1019.76 1019.47 1019.01 1018.24 1017.49 1016.55 1016.08 1015.91 1015.71 1015.45 1015.58 1015.38 1015.19 1015.08 1014.99 1014.59 1014.13 1013.56 1013.04 1012.45 1011.70 1011.01 1010.22 1009.61 1009.08
1020.95 1021.03 1020.95 1020.76 1020.65 1020.45 1020.28 1020.17 1020.13 1019.85 1019.50 1019.41 1018.66 1017.80 1016.55 1015.88 1015.97 1015.88 1015.87 1015.98 1015.74 1015.64 1015.36 1015.16 1014.71 1014.19 1013.77 1013.26 1012.52 1011.47 1010.45 1009.49 1008.54
1021.01 1021.06 1021.08 1021.02 1020.84 1020.68 1020.50 1020.38 1020.38 1020.34 1019.96 1019.67 1019.55 1019.10 1018.54 1017.80 1016.42 1016.30 1016.41 1016.30 1016.24 1016.30 1016.06 1015.80 1015.36 1014.80 1014.43 1013.62 1012.88 1012.09 1011.05 1009.85 1008.90
1020.67 1020.68 1020.68 1020.68 1020.75 1020.76 1020.60 1020.28 1020.20 1020.17 1020.21 1019.90 1019.72 1019.55 1019.65 1019.14 1017.90 1016.89 1016.66 1016.71 1016.66 1016.55 1016.45 1016.27 1015.83 1015.35 1014.79 1014.23 1013.56 1012.83 1011.83 1010.70 1009.48
1020.60 1020.69 1020.78 1020.77 1020.74 1020.77 1020.77 1020.64 1020.60 1020.49 1020.44 1020.33 1020.18 1019.92 1019.77 1019.70 1019.53 1018.26 1017.49 1017.13 1016.92 1016.83 1016.65 1016.55 1016.30 1015.91 1015.27 1014.62 1014.20 1013.48 1012.49 1011.35 1010.14
Thickness
5717 5717 5716 5716 5715 5714 5714 5714 5714 5714 5713 5713 5713 5713 5711 5711 5710 5710 5710 5711 5712 5712 5710 5708 5706 5706 5705 5706 5706 5707 5708 5708 5708
5711 5710 5711 5710 5709 5710 5709 5709 5709 5709 5709 5709 5709 5708 5707 5706 5705 5705 5707 5706 5706 5708 5707 5705 5703 5703 5702 5700 5700 5701 5702 5703 5704
5706 5706 5705 5705 5705 5704 5704 5704 5705 5705 5704 5703 5703 5703 5703 5702 5701 5700 5701 5702 5702 5702 5702 5701 5699 5698 5697 5697 5696 5696 5696 5697 5697
5703 5702 5701 5700 5701 5700 5700 5700 5700 5699 5699 5699 5699 5699 5699 5698 5696 5695 5696 5697 5697 5698 5698 5696 5695 5693 5692 5692 5692 5692 5692 5691 5692
5698 5698 5697 5696 5695 5695 5695 5695 5694 5693 5693 5693 5694 5693 5692 5691 5691 5690 5689 5690 5692 5692 5691 5691 5689 5689 5688 5687 5686 5686 5687 5687 5687
5692 5692 5692 5691 5690 5688 5688 5687 5687 5687 5686 5686 5686 5687 5686 5686 5684 5683 5684 5683 5683 5683 5682 5683 5683 5683 5682 5681 5681 5682 5681 5681 5681
5682 5683 5682 5681 5681 5679 5678 5677 5677 5677 5676 5676 5677 5678 5679 5679 5679 5678 5678 5678 5678 5676 5675 5675 5675 5676 5676 5675 5675 5675 5676 5676 5676
5671 5670 5669 5669 5668 5667 5667 5667 5667 5667 5666 5667 5667 5667 5667 5668 5669 5670 5672 5672 5671 5670 5669 5668 5668 5669 5670 5669 5669 5669 5669 5671 5671
5661 5659 5658 5658 5657 5657 5656 5656 5656 5657 5658 5659 5659 5660 5659 5659 5659 5660 5661 5663 5665 5664 5662 5661 5661 5663 5664 5664 5663 5663 5663 5663 5663
5651 5649 5649 5647 5647 5646 5645 5645 5646 5647 5648 5650 5650 5650 5651 5651 5651 5651 5652 5653 5654 5655 5657 5658 5656 5655 5655 5655 5656 5657 5657 5656 5656
5642 5641 5640 5639 5638 5637 5636 5636 5636 5636 5638 5639 5640 5641 5642 5643 5643 5644 5645 5645 5644 5643 5644 5648 5649 5650 5649 5648 5649 5648 5649 5650 5651
5634 5633 5632 5630 5629 5629 5628 5628 5628 5628 5629 5630 5632 5634 5635 5635 5636 5637 5638 5638 5637 5636 5636 5637 5639 5641 5641 5641 5641 5642 5643 5644 5645
5627 5626 5625 5624 5623 5621 5620 5619 5618 5619 5620 5622 5625 5626 5627 5627 5628 5628 5628 5628 5626 5624 5623 5626 5628 5630 5632 5633 5634 5635 5635 5636 5639
5619 5618 5618 5617 5616 5615 5614 5612 5611 5610 5611 5613 5616 5618 5618 5618 5617 5618 5618 5616 5613 5611 5611 5613 5617 5620 5622 5623 5624 5625 5628 5628 5631
5612 5611 5610 5610 5610 5609 5607 5605 5603 5602 5602 5606 5609 5611 5610 5608 5607 5607 5604 5602 5600 5599 5599 5600 5601 5604 5607 5608 5609 5611 5613 5617 5622
5605 5604 5604 5603 5602 5600 5599 5597 5595 5593 5595 5598 5599 5603 5604 5602 5600 5598 5593 5591 5589 5587 5585 5585 5585 5587 5586 5584 5585 5587 5594 5602 5610
5599 5598 5597 5596 5594 5593 5591 5588 5586 5584 5584 5582 5584 5586 5591 5594 5589 5586 5582 5576 5575 5573 5572 5571 5569 5569 5567 5564 5566 5568 5571 5581 5596
5595 5593 5590 5588 5586 5584 5582 5580 5577 5574 5574 5573 5570 5572 5571 5568 5577 5573 5568 5565 5562 5558 5555 5554 5553 5552 5549 5548 5549 5549 5551 5558 5574
5591 5588 5586 5583 5580 5577 5574 5574 5572 5568 5565 5563 5561 5559 5553 5556 5562 5560 5556 5552 5548 5545 5541 5539 5538 5537 5536 5534 5533 5534 5536 5540 5555
5585 5582 5579 5577 5574 5570 5567 5564 5561 5558 5554 5551 5547 5545 5541 5540 5534 5542 5541 5537 5535 5532 5528 5525 5523 5521 5522 5522 5520 5521 5525 5532 5541